Theta_e
325 325 326 329 332 329 326 325 322 318 316 316 313 312 316 317 317 318 319 315 309 308 309 309 306 303 302 300 300 300 300 300 300 300 300 300 300 300 299 299 299 300 300
330 330 326 330 332 329 325 323 321 314 311 313 310 313 314 315 315 317 319 315 314 311 309 308 307 304 302 300 299 300 300 300 300 299 299 299 299 299 299 299 299 299 299
324 329 328 326 330 328 326 322 318 315 314 313 311 311 313 314 315 315 317 317 315 313 312 307 306 303 301 299 299 299 299 299 299 298 298 298 298 298 298 298 298 298 298
328 331 327 327 330 328 327 327 323 314 314 312 314 313 313 313 313 313 315 317 315 312 311 306 302 302 301 300 301 300 298 298 298 298 297 297 297 297 297 297 297 297 297
323 326 328 328 329 329 328 327 325 320 313 313 313 313 312 312 312 313 314 316 315 313 312 307 300 302 304 305 305 303 301 298 297 297 297 297 297 297 297 297 297 297 297
326 327 329 330 330 329 330 328 326 321 313 312 311 312 311 310 311 311 313 313 314 313 311 309 306 306 305 307 306 305 303 300 298 296 296 296 296 296 296 296 296 296 295
331 329 330 331 330 330 329 328 327 321 311 310 310 309 309 309 309 309 311 312 312 311 310 309 307 308 306 306 306 306 304 301 298 296 295 295 295 295 295 295 295 295 294
335 334 332 330 330 330 330 329 329 324 312 308 307 307 308 308 308 308 309 309 310 309 307 307 306 307 306 306 305 305 304 301 298 295 295 294 294 294 294 294 294 294 294
334 334 333 332 331 330 331 330 329 329 321 311 306 308 308 309 308 307 307 307 307 306 305 304 304 304 305 305 304 302 300 297 296 294 294 294 294 294 294 293 293 293 293
332 332 333 333 331 332 331 331 331 330 329 314 312 306 309 310 309 307 306 306 306 305 304 303 302 301 301 302 302 299 294 293 293 294 294 293 293 293 293 293 293 293 292
329 331 331 332 331 330 331 332 331 331 330 319 318 310 308 310 308 307 305 304 305 304 304 303 301 299 298 299 298 294 293 293 292 293 293 293 293 293 293 293 292 292 292
320 321 323 328 329 328 330 330 330 329 330 319 315 310 309 308 308 306 305 304 303 303 303 302 301 299 298 297 296 294 293 292 292 292 292 292 292 292 292 292 291 291 291
316 316 318 322 326 327 325 325 324 323 321 314 310 308 308 307 306 305 304 303 302 303 303 302 301 299 298 297 296 294 293 292 292 291 291 291 291 291 291 291 291 291 291
313 313 314 317 319 321 322 323 322 321 320 319 313 308 308 305 305 305 305 303 302 302 302 301 300 299 298 297 296 294 293 292 292 292 291 291 291 291 291 290 290 290 289
310 310 311 312 313 315 317 317 318 317 317 316 316 310 310 311 307 308 305 303 303 300 301 300 299 298 297 297 296 294 294 293 292 293 293 292 291 291 290 290 289 289 289
311 311 311 311 311 311 312 313 314 313 313 314 313 310 309 307 305 304 303 303 304 305 302 300 299 298 297 296 296 294 294 293 292 292 291 293 293 292 291 290 289 289 288
313 312 311 312 311 311 310 309 310 310 311 310 310 309 308 305 304 303 303 304 304 302 302 299 298 298 297 296 296 296 295 293 292 291 292 292 292 292 291 291 289 289 288
311 312 311 311 312 310 310 309 308 308 308 308 308 306 305 304 303 303 304 303 301 302 302 300 298 298 297 296 296 295 294 293 292 291 292 291 290 290 290 290 289 288 287
310 310 310 311 311 311 309 308 306 306 305 306 306 306 304 303 302 302 303 300 300 302 302 302 300 298 298 297 296 295 294 292 291 292 291 290 290 289 290 290 288 287 287
307 306 307 309 310 312 309 308 306 306 305 304 303 303 302 302 301 301 300 300 301 301 301 301 302 301 299 297 296 295 292 291 289 291 289 290 290 289 289 289 288 287 289
304 304 306 305 306 309 311 308 305 305 303 302 301 300 302 302 300 300 300 300 300 300 300 300 299 299 297 295 294 293 291 290 289 290 290 291 289 288 289 288 287 288 287
303 303 305 305 304 305 310 309 307 305 301 301 300 300 300 299 299 298 299 299 300 300 300 299 299 298 296 295 294 292 291 290 288 288 287 286 286 285 285 284 286 287 284
303 303 304 304 302 303 308 308 306 305 303 300 300 300 300 300 299 298 297 297 297 298 299 300 299 297 297 295 294 292 292 291 289 289 287 287 285 285 284 284 287 283 282
300 302 304 304 303 303 307 307 305 304 302 302 300 300 300 299 298 298 297 296 295 295 295 296 297 297 296 295 294 294 292 290 288 288 286 287 286 285 284 283 283 282 281
298 301 304 304 302 301 307 306 304 302 301 300 300 299 300 298 298 297 296 295 294 294 293 294 294 295 295 294 294 292 289 288 287 287 288 286 285 284 283 281 281 282 281
298 299 303 303 301 300 304 306 304 303 301 299 299 299 299 298 297 296 296 296 294 293 293 292 291 292 292 291 290 290 290 288 287 285 285 285 283 281 282 281 280 280 280
Wind_Speed
30 31 30 23 21 20 22 22 19 21 21 20 20 19 17 14 12 10 11 13 12 10 9 9 8 8 6 5 5 5 5 4 4 4 4 4 4 5 5 4 3 3 3
28 26 30 25 21 21 20 21 22 24 22 21 21 20 20 17 15 13 12 15 13 12 11 10 10 9 8 6 5 4 4 4 4 4 4 4 5 6 6 5 5 5 4
36 34 29 31 28 26 27 23 22 21 22 22 22 23 20 19 16 16 15 14 16 14 13 12 11 9 8 8 7 6 5 5 5 5 5 5 5 6 6 6 5 5 5
34 34 32 34 35 35 36 34 30 21 22 24 21 21 20 19 19 19 17 17 20 15 15 14 12 10 9 8 8 8 8 7 7 7 7 7 6 6 6 5 5 4 4
41 42 36 35 39 38 40 37 36 36 25 22 21 22 23 20 20 19 19 21 18 17 15 18 15 12 11 11 12 11 10 9 9 8 7 7 6 5 4 4 3 3 4
42 43 42 39 40 42 41 41 42 40 33 30 25 22 21 22 21 20 22 22 22 20 18 16 16 14 15 15 14 13 12 11 10 8 7 6 6 5 4 4 3 4 4
43 43 47 43 45 48 49 46 45 42 42 36 32 23 22 21 23 23 23 23 23 23 20 19 16 16 17 18 16 15 14 13 11 10 9 8 7 6 5 4 3 3 3
39 41 47 46 52 51 52 51 51 47 39 47 45 40 22 24 25 25 24 25 25 23 23 21 20 19 17 16 16 17 16 14 13 11 9 8 7 7 6 4 3 2 3
43 45 47 51 51 58 62 59 57 56 56 50 51 35 17 23 31 29 30 29 28 26 25 24 23 21 20 18 21 21 19 16 14 12 11 10 8 6 4 3 2 1 2
42 45 49 52 57 60 63 66 64 63 62 56 60 55 33 22 25 22 32 32 29 28 26 25 24 23 22 20 21 22 21 18 16 13 12 10 9 7 5 3 2 1 1
28 35 48 54 55 62 65 62 70 71 72 66 69 65 52 32 34 23 35 39 30 29 26 26 26 25 26 22 22 24 23 20 17 14 13 12 11 9 7 5 3 2 2
25 27 27 34 54 59 65 66 61 74 78 63 61 54 59 48 38 26 19 42 47 39 29 26 26 25 24 23 22 25 25 23 20 18 15 13 11 10 8 7 5 4 4
19 22 24 26 37 51 54 62 63 62 65 58 51 42 37 45 40 30 24 34 39 37 31 30 26 26 25 23 24 25 25 24 22 19 17 15 13 12 10 9 8 7 7
18 21 21 22 27 33 38 48 53 58 57 64 59 52 54 48 44 42 28 39 31 30 33 31 33 31 25 24 24 27 24 24 23 21 17 15 13 12 11 9 9 9 8
15 21 21 22 26 27 31 36 41 47 51 60 65 68 68 71 71 65 53 48 45 25 34 36 33 35 28 25 27 28 26 23 21 19 18 15 14 12 11 11 10 10 10
18 20 23 24 23 25 27 31 33 38 42 48 57 65 66 61 57 52 52 48 43 36 31 36 40 44 42 29 30 27 23 24 22 20 16 16 15 14 12 11 11 11 11
19 21 23 24 24 24 24 26 27 32 38 44 51 61 64 59 59 55 59 50 38 34 38 38 37 32 44 35 30 26 25 26 25 21 18 17 15 13 11 10 10 10 11
24 22 24 27 25 21 26 24 26 28 32 40 45 52 55 54 55 55 57 46 37 39 37 39 36 34 38 37 33 30 25 23 19 25 21 18 15 13 12 11 11 12 12
24 26 27 26 25 23 22 20 20 23 30 34 39 45 53 55 52 49 51 44 41 34 28 31 34 35 35 39 37 35 30 23 22 24 23 19 16 16 14 14 13 14 14
22 24 24 24 23 22 22 18 20 21 21 30 38 42 50 52 50 46 45 43 41 36 33 31 36 40 44 43 42 41 33 31 25 23 22 22 21 19 17 16 16 16 17
23 27 28 26 23 25 22 19 16 21 18 18 25 38 39 41 45 43 45 44 42 42 40 40 40 42 42 43 46 41 39 34 23 25 25 23 20 20 19 18 17 17 17
25 26 28 29 28 26 26 25 19 17 17 17 18 26 28 24 29 32 37 37 36 42 42 40 39 43 43 45 46 44 37 28 21 22 18 13 16 12 11 10 16 17 18
29 26 28 28 27 26 23 22 18 19 22 17 16 20 23 23 25 28 26 26 26 27 26 31 36 40 40 44 42 35 29 27 20 15 18 15 15 11 11 16 19 18 18
32 30 27 26 27 27 20 21 14 13 20 28 23 15 21 24 26 23 22 22 22 21 20 23 27 30 29 29 29 27 28 20 16 19 16 13 17 11 12 10 19 18 18
31 32 28 25 26 25 19 19 14 12 17 23 25 22 19 24 23 20 23 24 23 22 19 19 20 20 19 23 25 27 26 26 20 18 20 13 14 13 15 13 12 18 17
33 31 30 26 25 25 19 19 18 20 21 22 25 24 17 20 21 19 20 22 25 28 29 25 22 19 17 19 20 21 21 18 14 12 17 15 11 9 5 10 11 10 8
Wind_Direction
228 229 227 220 221 225 222 221 211 213 218 218 221 220 213 203 198 192 197 196 207 194 175 170 165 158 152 140 130 126 127 126 124 121 118 113 101 95 90 93 98 105 109
228 228 228 221 221 224 224 220 216 220 217 219 220 218 216 211 205 192 198 202 196 192 185 175 172 168 164 164 162 159 155 144 139 137 127 111 103 100 96 90 83 78 74
232 230 228 231 225 223 228 225 222 216 212 217 218 220 215 212 205 198 192 200 200 193 187 182 182 180 178 179 181 179 173 162 152 143 133 117 108 103 98 92 83 75 64
234 238 235 237 232 233 236 232 231 220 216 214 211 213 213 214 210 207 192 197 206 194 197 197 200 191 187 182 179 174 171 166 158 152 145 137 130 119 109 101 92 77 64
245 243 239 240 239 237 235 233 233 230 217 211 208 209 208 207 211 208 202 192 196 193 192 204 202 193 183 169 165 163 167 168 167 163 153 143 135 124 115 107 96 75 46
256 248 244 243 239 238 232 234 232 227 216 212 202 209 215 209 206 206 206 199 198 192 193 195 194 190 183 177 171 167 166 167 171 171 161 151 141 132 121 106 89 66 50
265 252 251 240 243 240 239 241 232 226 219 209 196 197 211 214 206 207 207 204 204 197 196 194 187 193 187 182 179 172 170 172 176 177 172 162 153 146 139 129 103 77 61
281 270 262 251 240 242 240 239 234 225 218 221 207 200 190 213 213 206 206 206 205 198 198 196 192 190 187 186 187 178 175 176 181 183 178 168 164 162 156 146 129 90 57
285 278 271 259 249 245 245 244 239 234 228 224 219 208 187 219 197 203 205 206 204 197 196 194 195 193 188 186 196 188 194 191 190 186 183 176 170 169 169 163 139 96 24
282 282 278 268 252 252 248 249 244 238 232 221 223 215 222 218 188 188 204 203 202 198 197 195 195 193 192 195 188 194 201 201 200 195 185 182 182 185 190 186 180 227 329
279 276 265 262 261 249 253 254 247 237 238 224 227 214 208 211 199 195 184 195 197 202 201 201 194 196 197 194 199 203 202 201 200 197 192 190 190 191 197 210 218 250 293
292 279 276 270 255 249 254 259 259 249 241 230 224 218 207 204 200 188 200 187 187 191 199 207 200 195 198 197 200 204 197 197 197 198 197 196 196 198 201 210 218 237 263
317 305 283 266 259 251 249 247 245 245 242 228 222 214 221 209 209 199 185 187 189 189 186 207 207 197 196 196 201 201 197 196 196 197 199 199 203 205 208 208 218 233 250
327 319 311 295 274 263 261 253 250 249 248 243 232 218 216 218 215 204 216 200 179 182 181 197 202 204 197 193 202 202 198 198 198 197 198 202 205 212 217 221 227 237 248
338 337 323 305 290 282 271 265 262 256 245 239 237 229 222 226 223 233 215 208 209 181 188 194 196 200 199 191 203 200 198 198 197 196 195 198 208 212 217 226 232 241 250
317 319 318 324 315 298 287 274 271 271 256 242 237 228 224 219 215 211 205 206 213 222 192 198 199 201 199 190 200 195 192 199 198 199 191 202 211 216 220 227 236 243 253
295 303 308 305 315 310 302 288 278 270 261 247 234 227 221 215 209 203 204 208 212 203 197 185 193 197 200 191 193 192 200 199 202 199 205 209 214 224 231 242 251 257 260
292 298 301 302 296 302 309 296 288 278 265 248 236 223 214 209 206 202 204 202 199 209 209 182 191 187 191 199 198 192 197 196 195 206 212 215 218 227 242 253 260 261 265
300 296 296 297 293 284 293 296 292 278 265 255 244 234 222 215 209 203 206 189 193 194 196 197 183 187 193 199 200 201 201 186 189 209 209 218 226 237 249 261 268 270 273
312 311 308 300 296 286 279 281 286 267 266 251 238 231 222 214 207 204 197 196 194 191 188 195 198 197 200 200 202 194 184 188 190 203 210 221 230 238 252 264 267 273 283
308 307 307 308 306 289 279 273 294 273 265 253 238 216 218 214 215 210 207 210 209 203 207 205 201 200 197 189 189 190 193 193 198 209 219 229 231 240 255 261 265 273 283
305 306 306 302 303 293 282 276 270 274 250 237 228 220 228 219 210 213 213 214 204 201 219 209 205 205 199 196 196 196 195 188 186 210 205 211 217 230 233 254 267 285 285
301 302 301 301 306 300 285 281 265 269 241 236 219 214 206 212 212 206 208 205 206 213 216 218 212 207 203 202 202 196 195 199 198 212 197 204 226 226 234 252 271 275 277
291 293 293 293 300 303 287 284 260 261 247 230 232 220 205 204 206 207 205 200 199 202 204 213 221 214 210 197 194 198 191 184 179 202 183 201 232 223 235 249 275 274 276
284 283 283 284 292 299 285 282 253 247 243 228 221 224 207 211 206 197 188 185 180 178 174 175 175 177 181 189 196 189 180 180 190 209 216 208 224 226 244 249 254 275 275
278 279 279 279 284 291 282 272 256 253 233 220 208 209 201 192 191 190 191 187 175 169 168 164 170 174 182 185 189 193 196 185 185 187 219 212 210 226 242 257 250 265 284